{"data":{"norad_id":45197,"intl_designator":"2020-012V","name":"STARLINK-1269","alt_names":[],"object_type":"PAYLOAD","status":"ACTIVE","operator":null,"country":"US","launch_date":"2020-02-17","launch_site_code":"AFETR","launch_vehicle":null,"mission":null,"orbit_class":"UNKNOWN","rcs_meters":null,"size_class":null,"mass_kg":null,"dimensions":null,"purposes":["comms"],"wikipedia_slug":null,"has_3d_model":false,"image_url":null,"decayed_at":null,"tle_current":{"epoch":"2026-09-19T11:44:40.067232Z","epoch_age_seconds":101785,"freshness":"FRESH","line1":"1 45197U 20012V   26262.48935263  .00045795  00000+0  10144-2 0  9990","line2":"2 45197  53.1507 211.7230 0003060  68.0625 292.0706 15.43344471364691","mean_motion":15.43344471,"eccentricity":0.000306,"inclination_deg":53.1507,"raan_deg":211.723,"arg_perigee_deg":68.0625,"mean_anomaly_deg":292.0706,"bstar":0.0010144,"rev_number":36469,"period_min":93.303862297635,"perigee_km":434.16166283173,"apogee_km":438.33206575668,"semimajor_km":6814.3838642942,"source":"CELESTRAK","updated_at":"2026-09-20T09:00:38.226638Z"}}}